This is the latest recevied weather packets stored in our database for station/object JQ2GLP-13. If no packets are shown the sender has not sent any weather packets the latest 10 day(s).
| Time | Temp. | Humidity | Pressure | Rain* | Wind** | Luminosity | Snow |
|---|---|---|---|---|---|---|---|
| 1777570632 | 15° C | 89% | 1006.6 hPa | 3.56 mm | - | - | - |
| 1777568833 | 15.56° C | 88% | 1006.5 hPa | 2.29 mm | - | - | - |
| 1777563433 | 15° C | 89% | 1007.1 hPa | 0 mm | - | - | - |
| 1777561632 | 15° C | 89% | 1007.9 hPa | 0 mm | - | - | - |
| 1777559832 | 14.44° C | 88% | 1008.8 hPa | 1.52 mm | - | - | - |
| 1777558034 | 14.44° C | 87% | 1009.3 hPa | 1.27 mm | - | - | - |
| 1777554432 | 15° C | 86% | 1010.7 hPa | 1.02 mm | - | - | - |
| 1777552633 | 15° C | 85% | 1011 hPa | 0.51 mm | - | - | - |
| 1777550833 | 15° C | 86% | 1011.1 hPa | 0.51 mm | - | - | - |
| 1777549034 | 14.44° C | 86% | 1011.6 hPa | 1.02 mm | - | - | - |
| 1777547234 | 14.44° C | 86% | 1011.7 hPa | 0.76 mm | - | - | - |
| 1777545433 | 13.89° C | 87% | 1011.7 hPa | 1.02 mm | - | - | - |
| 1777543634 | 13.89° C | 87% | 1012.1 hPa | 1.02 mm | - | - | - |
| 1777540033 | 13.89° C | 86% | 1012.3 hPa | 0.51 mm | - | - | - |
| 1777538235 | 13.89° C | 85% | 1012.4 hPa | 0.25 mm | - | - | - |
| 1777536433 | 13.89° C | 83% | 1012.5 hPa | 0 mm | - | - | - |
| 1777534633 | 14.44° C | 82% | 1012.6 hPa | 0 mm | - | - | - |
| 1777532833 | 14.44° C | 83% | 1012.8 hPa | 0 mm | - | - | - |
| 1777531034 | 14.44° C | 84% | 1013 hPa | 0 mm | - | - | - |
| 1777529235 | 14.44° C | 84% | 1013.4 hPa | 0.25 mm | - | - | - |
| 1777527435 | 15° C | 84% | 1013.9 hPa | 0.51 mm | - | - | - |
| 1777523834 | 15° C | 83% | 1014.5 hPa | 0 mm | - | - | - |
| 1777522034 | 15.56° C | 83% | 1014.7 hPa | 0.25 mm | - | - | - |
| 1777520235 | 15° C | 83% | 1014.9 hPa | 0.25 mm | - | - | - |
| 1777518435 | 15.56° C | 84% | 1015.2 hPa | 0.25 mm | - | - | - |
* Rain latest hour (hover to see other rain measurements)
** Current wind speed in m/s (hover to see current wind gust speed)